LIM260 LICC-LICR

Flight info

Callsign LIM260
Flight time 0h 15m
Altitude 12000
Route PEKOD Y93 NATOV
Aircraft TBM8/L-SDFGRWY/S

Departure

Time 2026-04-30 19:06
Airport Catania-Fontanarossa Airport (LICC)

Arrival

Time 2026-04-30 19:22
Airport Reggio Calabria Airport (LICR)
Time Latitude Longitude Altitude Speed Heading
2026-04-30 18:57 37.46976 15.05840 26 ft 0 kts 160°
2026-04-30 19:01 37.46973 15.05842 -1 ft 0 kts 149°
2026-04-30 19:02 37.47009 15.05806 26 ft 11 kts 275°
2026-04-30 19:03 37.46947 15.05668 26 ft 7 kts 236°
2026-04-30 19:03 37.46895 15.05594 29 ft 5 kts 219°
2026-04-30 19:04 37.46782 15.05485 26 ft 6 kts 197°
2026-04-30 19:04 37.46683 15.05468 28 ft 8 kts 187°
2026-04-30 19:05 37.46600 15.05530 29 ft 9 kts 117°
2026-04-30 19:05 37.46639 15.06142 30 ft 74 kts 84°
2026-04-30 19:06 37.46788 15.07818 315 ft 115 kts 81°
2026-04-30 19:06 37.46870 15.08888 530 ft 130 kts 81°
2026-04-30 19:06 37.47197 15.11404 1274 ft 154 kts 79°
2026-04-30 19:07 37.47572 15.14106 2305 ft 159 kts 79°
2026-04-30 19:07 37.47767 15.15490 2809 ft 162 kts 79°
2026-04-30 19:08 37.48164 15.18340 3815 ft 166 kts 78°
2026-04-30 19:08 37.48573 15.21259 4810 ft 172 kts 78°
2026-04-30 19:08 37.48781 15.22751 5302 ft 175 kts 77°
2026-04-30 19:09 37.49211 15.25817 6261 ft 184 kts 77°
2026-04-30 19:09 37.49440 15.27466 6514 ft 198 kts 78°
2026-04-30 19:09 37.49698 15.29211 6762 ft 206 kts 73°
2026-04-30 19:10 37.51362 15.32167 7254 ft 212 kts 45°
2026-04-30 19:10 37.53268 15.35086 7753 ft 218 kts 48°
2026-04-30 19:11 37.54228 15.36580 7985 ft 222 kts 47°
2026-04-30 19:11 37.56821 15.38727 8001 ft 231 kts 18°
2026-04-30 19:11 37.58328 15.39476 8003 ft 235 kts 19°
2026-04-30 19:12 37.59849 15.40251 8008 ft 237 kts 19°
2026-04-30 19:12 37.61380 15.41025 8006 ft 238 kts 18°
2026-04-30 19:12 37.62896 15.41788 8006 ft 238 kts 18°
2026-04-30 19:13 37.65974 15.43343 8006 ft 238 kts 18°
2026-04-30 19:13 37.69071 15.44849 8006 ft 238 kts 16°
2026-04-30 19:13 37.70616 15.45615 7997 ft 240 kts 20°
2026-04-30 19:14 37.72141 15.46466 7998 ft 239 kts 20°
2026-04-30 19:14 37.73671 15.47270 7983 ft 239 kts 22°
2026-04-30 19:14 37.75014 15.48455 7286 ft 232 kts 37°
2026-04-30 19:14 37.76223 15.49746 6566 ft 224 kts 37°
2026-04-30 19:15 37.77406 15.50991 5817 ft 219 kts 37°
2026-04-30 19:15 37.79701 15.53371 4324 ft 209 kts 37°
2026-04-30 19:15 37.80831 15.54512 3577 ft 207 kts 37°
2026-04-30 19:16 37.82047 15.55521 3016 ft 216 kts 27°
2026-04-30 19:16 37.83457 15.56202 3008 ft 219 kts 15°
2026-04-30 19:16 37.86410 15.57268 3003 ft 222 kts 17°
2026-04-30 19:17 37.87878 15.57884 3002 ft 222 kts 18°
2026-04-30 19:17 37.89364 15.58520 2766 ft 229 kts 19°
2026-04-30 19:17 37.90556 15.59121 2482 ft 231 kts 23°
2026-04-30 19:18 37.92780 15.60794 2158 ft 221 kts 35°
2026-04-30 19:18 37.94449 15.62038 1992 ft 198 kts 28°
2026-04-30 19:18 37.95735 15.62712 1846 ft 201 kts 20°
2026-04-30 19:19 37.97045 15.63307 1694 ft 199 kts 22°
2026-04-30 19:19 37.98353 15.63932 1496 ft 204 kts 20°
2026-04-30 19:19 38.00640 15.64919 956 ft 153 kts 18°
2026-04-30 19:20 38.01662 15.65348 810 ft 156 kts 16°
2026-04-30 19:20 38.02666 15.65711 752 ft 132 kts 14°
2026-04-30 19:20 38.04312 15.66269 503 ft 121 kts
2026-04-30 19:21 38.05147 15.66271 365 ft 120 kts 348°
2026-04-30 19:21 38.06624 15.65477 62 ft 111 kts 332°
2026-04-30 19:22 38.07508 15.64901 51 ft 40 kts 332°
2026-04-30 19:22 38.07480 15.64937 50 ft 21 kts 154°
2026-04-30 19:23 38.07430 15.65106 44 ft 4 kts 60°
2026-04-30 19:24 38.07440 15.65128 44 ft 0 kts 60°
2026-04-30 19:24 38.07440 15.65127 44 ft 0 kts 60°